(251234) = 2000 JZ89 = 2004 FV10 = 2006 UR278

Discovered at Kitt Peak on 2006-10-28 by Spacewatch.

Orbit

Orbit type: Main Belt

Note: WebGL enabled browser required.

epoch2023-09-13.0
epoch JD2460200.5
perihelion date2022-02-23.12085
perihelion JD2459633.62085
argument of perihelion (°)218.47369
ascending node (°)23.58749
inclination (°)4.25482
eccentricity0.1303163
perihelion distance (AU)2.2919434
Tisserand w.r.t. Jupiter3.4
ΔV w.r.t. Earth (km/sec)9.6
semimajor axis (AU)2.6353758
mean anomaly (°)130.59619
mean daily motion (°/day)0.23037750
aphelion distance (AU)2.979
period (years)4.28
P-vector [x]-0.46921463
P-vector [y]-0.79074520
P-vector [z]-0.39314075
Q-vector [x]0.88258498
Q-vector [y]-0.40494743
Q-vector [z]-0.23887514
absolute magnitude16.99
phase slope0.15
uncertainty0
referenceMPEC 2023-W29
observations used294
oppositions14
arc length (days)8598
first opposition used2000
last opposition used2023
residual rms (arc-secs)0.77
perturbers coarse indicatorM-v
perturbers precise indicator003Ek
first observation date used2000-05-04.0
last observation date used2023-11-18.0
computer nameMPCLINUX
JD of orbit computation2456966.741040
perihelion JD uncertainty (days)1.0273E-04
argument of perihelion uncertainty (°)5.5765E-05
ascending node uncertainty (°)4.9941E-05
inclination uncertainty (°)6.4834E-06
eccentricity uncertainty 5.2853E-08
perihelion distance uncertainty (AU)1.3196E-07
Minimum Orbit Intersection Distances (in AU)
for orbit epoch: 2460200.5, reference: E2023-W29
Mercury1.82787
Venus1.56885
Earth1.28039
Mars0.73356
Jupiter2.03119
Saturn6.11331
Uranus15.8437
Neptune26.899

Observations

302 total observations over interval: 2000 05 04.26252 – 2023 11 18.250113
These data are available for download (format description).

Date (UT) J2000 RA J2000 Dec Magn Location Ref
2000 05 04.26252 11 49 06.051 +02 16 05.00 20.81 V 645 – Apache Point-Sloan Digital Sky Survey MPS 121104
2000 05 04.262520 11 49 06.050 +02 16 04.99 20.82 V 645 – Apache Point-Sloan Digital Sky Survey MPS 121104
2000 05 04.265992 11 49 06.004 +02 16 04.79 21.72   645 – Apache Point-Sloan Digital Sky Survey MPS 121104
2000 05 05.277560 11 48 55.233 +02 14 51.00 20.89 V 645 – Apache Point-Sloan Digital Sky Survey MPS 121104
2000 05 05.281032 11 48 55.191 +02 14 50.74 21.84   645 – Apache Point-Sloan Digital Sky Survey MPS 121104
2004 03 17.34174 09 52 38.98 +17 59 30.8 21.2 V 291 – LPL/Spacewatch II MPS 102338
2004 03 17.34646 09 52 38.81 +17 59 30.9 21.4 V 291 – LPL/Spacewatch II MPS 102338
2004 03 17.35125 09 52 38.61 +17 59 31.3 21.4 V 291 – LPL/Spacewatch II MPS 102338
2004 03 18.11629 09 52 09.57 +18 00 13.5 21.0 V 691 – Steward Observatory, Kitt Peak-Spacewatch MPS 102338
2004 03 18.15086 09 52 08.21 +18 00 15.2 21.5 V 691 – Steward Observatory, Kitt Peak-Spacewatch MPS 102338
2004 03 18.18057 09 52 07.03 +18 00 17.0 21.3 V 691 – Steward Observatory, Kitt Peak-Spacewatch MPS 102338
2006 09 27.29282 02 47 41.49 +17 01 26.6 21.5 V G96 – Mt. Lemmon Survey MPS 190632
2006 09 27.30017 02 47 41.24 +17 01 26.2 21.5 V G96 – Mt. Lemmon Survey MPS 190632
2006 09 27.30762 02 47 40.99 +17 01 26.2 21.3 V G96 – Mt. Lemmon Survey MPS 190632
2006 09 27.31509 02 47 40.81 +17 01 25.6 21.4 V G96 – Mt. Lemmon Survey MPS 190632
2006 10 19.27828 02 32 07.61 +16 21 40.2 21.3 V 691 – Steward Observatory, Kitt Peak-Spacewatch MPS 186583
2006 10 19.29567 02 32 06.70 +16 21 36.7 21.2 V 691 – Steward Observatory, Kitt Peak-Spacewatch MPS 186583
2006 10 19.31306 02 32 05.72 +16 21 33.8 21.3 V 691 – Steward Observatory, Kitt Peak-Spacewatch MPS 186583
2006 10 28.27154 02 23 49.99 +15 53 50.8 21.5 V 691 – Steward Observatory, Kitt Peak-Spacewatch MPS 185826
2006 10 28.29236 02 23 48.83 +15 53 46.6 21.2 V 691 – Steward Observatory, Kitt Peak-Spacewatch MPS 185826
2006 10 28.30975 02 23 47.76 +15 53 43.5 20.8 V 691 – Steward Observatory, Kitt Peak-Spacewatch MPS 185826
2006 11 01.27578 02 20 03.13 +15 40 14.3 21.0 V 691 – Steward Observatory, Kitt Peak-Spacewatch MPS 185826
2006 11 01.29310 02 20 02.09 +15 40 09.0 20.5 V 691 – Steward Observatory, Kitt Peak-Spacewatch MPS 185826
2006 11 01.31043 02 20 01.09 +15 40 07.1 20.6 V 691 – Steward Observatory, Kitt Peak-Spacewatch MPS 185826
2008 01 01.36288 08 41 00.28 +24 51 09.1 20.7 V 691 – Steward Observatory, Kitt Peak-Spacewatch MPS 232645
2008 01 01.38054 08 40 59.46 +24 51 13.8 20.8 V 691 – Steward Observatory, Kitt Peak-Spacewatch MPS 232645
2008 01 01.40168 08 40 58.52 +24 51 18.3 21.5 V 691 – Steward Observatory, Kitt Peak-Spacewatch MPS 232645
2008 01 18.24930 08 25 56.41 +25 56 29.0 20.8 V 691 – Steward Observatory, Kitt Peak-Spacewatch MPS 234317
2008 01 18.26745 08 25 55.30 +25 56 33.0 20.4 V 691 – Steward Observatory, Kitt Peak-Spacewatch MPS 234317
2008 01 18.28560 08 25 54.17 +25 56 37.0 20.1 V 691 – Steward Observatory, Kitt Peak-Spacewatch MPS 234317
2008 02 09.26163 08 03 43.74 +26 51 54.6 20.8 V G96 – Mt. Lemmon Survey MPS 237626
2008 02 09.26822 08 03 43.34 +26 51 55.4 21.0 V G96 – Mt. Lemmon Survey MPS 237626
2008 02 09.27495 08 03 42.98 +26 51 56.1 21.2 V G96 – Mt. Lemmon Survey MPS 237626
2008 02 09.28160 08 03 42.58 +26 51 56.2 21.1 V G96 – Mt. Lemmon Survey MPS 237626
2008 02 09.32122 08 03 40.35 +26 51 59.4 21.0 V G96 – Mt. Lemmon Survey MPS 237626
2008 02 09.32890 08 03 39.96 +26 51 59.7 20.8 V G96 – Mt. Lemmon Survey MPS 237626
2008 02 09.33661 08 03 39.49 +26 52 00.4 20.9 V G96 – Mt. Lemmon Survey MPS 237626
2008 02 10.19764 08 02 53.48 +26 53 02.2 20.9 V G96 – Mt. Lemmon Survey MPS 237626
2008 02 10.20677 08 02 52.98 +26 53 02.9 20.6 V G96 – Mt. Lemmon Survey MPS 237626
2008 02 10.21588 08 02 52.47 +26 53 03.4 20.9 V G96 – Mt. Lemmon Survey MPS 237626
2008 02 10.22501 08 02 51.97 +26 53 04.1 21.0 V G96 – Mt. Lemmon Survey MPS 237626
2008 02 10.30650 08 02 47.47 +26 53 10.0   291 – LPL/Spacewatch II MPS 237626
2008 02 10.31110 08 02 47.21 +26 53 09.9   291 – LPL/Spacewatch II MPS 237626
2008 02 10.31649 08 02 46.90 +26 53 10.1   291 – LPL/Spacewatch II MPS 237626
2010 09 04.36372 01 20 31.12 +06 41 24.4 21.1 V 691 – Steward Observatory, Kitt Peak-Spacewatch MPS 347140
2010 09 04.38140 01 20 30.60 +06 41 22.6 21.1 V 691 – Steward Observatory, Kitt Peak-Spacewatch MPS 347140
2010 09 04.39912 01 20 30.10 +06 41 20.9 21.5 V 691 – Steward Observatory, Kitt Peak-Spacewatch MPS 347140
2010 09 17.26689 01 12 49.69 +06 08 05.2 21.4 V 691 – Steward Observatory, Kitt Peak-Spacewatch MPS 348031
2010 09 17.28455 01 12 48.93 +06 08 01.9 21.4 V 691 – Steward Observatory, Kitt Peak-Spacewatch MPS 348031
2010 09 17.30219 01 12 48.13 +06 07 58.3 21.0 V 691 – Steward Observatory, Kitt Peak-Spacewatch MPS 348031
2010 10 01.25799 01 01 25.48 +05 15 48.0 20.4 V 691 – Steward Observatory, Kitt Peak-Spacewatch MPS 351015
2010 10 01.27563 01 01 24.49 +05 15 43.9 20.6 V 691 – Steward Observatory, Kitt Peak-Spacewatch MPS 351015
2010 10 01.29328 01 01 23.51 +05 15 39.7 21.1 V 691 – Steward Observatory, Kitt Peak-Spacewatch MPS 351015
2010 10 01.42794 01 01 16.21 +05 15 06.4 21.0 V G96 – Mt. Lemmon Survey MPS 351015
2010 10 01.43128 01 01 16.06 +05 15 05.5 20.6 V G96 – Mt. Lemmon Survey MPS 351015
2010 10 01.43464 01 01 15.85 +05 15 04.6 20.8 V G96 – Mt. Lemmon Survey MPS 351015
2010 10 01.43804 01 01 15.67 +05 15 03.7 21.0 V G96 – Mt. Lemmon Survey MPS 351015
2010 10 07.533281 00 55 48.408 +04 49 48.62 21.08 g F51 – Pan-STARRS 1, Haleakala MPS 366802
2010 10 07.545433 00 55 47.746 +04 49 45.40 21.21 g F51 – Pan-STARRS 1, Haleakala MPS 366802
2010 10 09.23306 00 54 17.10 +04 42 44.1 20.6 V G96 – Mt. Lemmon Survey MPS 353646
2010 10 09.23992 00 54 16.70 +04 42 42.6 20.6 V G96 – Mt. Lemmon Survey MPS 353646
2010 10 09.24678 00 54 16.30 +04 42 40.9 20.2 V G96 – Mt. Lemmon Survey MPS 353646
2010 10 09.25368 00 54 15.94 +04 42 39.2 20.5 V G96 – Mt. Lemmon Survey MPS 353646
2010 10 09.25896 00 54 15.59 +04 42 38.1 20.7 V 691 – Steward Observatory, Kitt Peak-Spacewatch MPS 353646
2010 10 09.27663 00 54 14.63 +04 42 33.8 20.3 V 691 – Steward Observatory, Kitt Peak-Spacewatch MPS 353646
2010 10 09.29430 00 54 13.62 +04 42 29.7 20.4 V 691 – Steward Observatory, Kitt Peak-Spacewatch MPS 353646
2010 10 13.26700 00 50 41.72 +04 26 14.9 20.6 V 691 – Steward Observatory, Kitt Peak-Spacewatch MPS 353646
2010 10 13.28469 00 50 40.71 +04 26 10.3 20.9 V 691 – Steward Observatory, Kitt Peak-Spacewatch MPS 353646
2010 10 13.30237 00 50 39.75 +04 26 06.3 20.7 V 691 – Steward Observatory, Kitt Peak-Spacewatch MPS 353646
2010 10 29.21604 00 38 03.04 +03 30 21.0 21.2 V G96 – Mt. Lemmon Survey MPS 355163
2010 10 29.22117 00 38 02.79 +03 30 20.5 21.0 V G96 – Mt. Lemmon Survey MPS 355163
2010 10 29.22632 00 38 02.61 +03 30 19.1 21.6 V G96 – Mt. Lemmon Survey MPS 355163
2010 10 29.23146 00 38 02.36 +03 30 18.5 21.6 V G96 – Mt. Lemmon Survey MPS 355163
2010 11 10.20224 00 31 24.88 +03 05 20.4 21.8 V G96 – Mt. Lemmon Survey MPS 357325
2010 11 10.20861 00 31 24.70 +03 05 19.7 21.0 V G96 – Mt. Lemmon Survey MPS 357325
2010 11 10.21499 00 31 24.56 +03 05 19.4 21.3 V G96 – Mt. Lemmon Survey MPS 357325
2010 11 10.22140 00 31 24.42 +03 05 18.5 21.6 V G96 – Mt. Lemmon Survey MPS 357325
2011 12 31.30181 06 27 21.09 +29 28 13.5 20.7 V G96 – Mt. Lemmon Survey MPS 407051
2011 12 31.30933 06 27 20.62 +29 28 13.9 20.7 V G96 – Mt. Lemmon Survey MPS 407051
2011 12 31.31685 06 27 20.12 +29 28 14.3 20.6 V G96 – Mt. Lemmon Survey MPS 407051
2011 12 31.32439 06 27 19.65 +29 28 14.9 20.2 V G96 – Mt. Lemmon Survey MPS 407051
2013 03 20.74801 14 05 26.57 -12 15 14.9 20.7 R D29 – Purple Mountain Observatory, XuYi Station MPS 461509
2013 03 20.76489 14 05 26.14 -12 15 15.3 21.3 R D29 – Purple Mountain Observatory, XuYi Station MPS 461509
2013 03 20.78177 14 05 25.60 -12 15 15.2 21.1 R D29 – Purple Mountain Observatory, XuYi Station MPS 461509
2013 04 16.35300 13 45 45.45 -11 29 25.0 20.3 r W84 – Cerro Tololo-DECam MPS 470553
2013 04 16.35716 13 45 45.21 -11 29 24.3 20.2 r W84 – Cerro Tololo-DECam MPS 470553
